Tracking 28794 objects as of 21-Apr-2024
HD Live streaming from Space Station
objects crossing your sky now

STARLINK-30050

Track STARLINK-30050 now!
10-day predictions
STARLINK-30050 is classified as:


NORAD ID: 55695
Int'l Code: 2023-026A
Perigee: 354.7 km
Apogee: 356.0 km
Inclination: 43.0 °
Period: 91.5 minutes
Semi major axis: 6726 km
RCS: Unknown
Launch date: February 27, 2023
Source: United States (US)
Launch site: AIR FORCE EASTERN TEST RANGE (AFETR)
Your satellite tracking list
Your tracking list is empty




NASA's NSSDC Master Catalog

Two Line Element Set (TLE):
1 55695U 23026A   24112.48016611  .00013591  00000-0  96648-4 0  9996
2 55695  43.0033 274.6883 0000995 234.7776 125.2999 15.73748481 67088
Source of the keplerian elements: AFSPC